Wind_Speed
41 39 38 36 35 36 36 37 36 34 33 32 33 32 31 31 30 29 28 28 27 25 25 24 23 22 21 20 17 16 12 10 8 7 11 17 23 18 12 10 8 8 10 10 10 9 8 11 9 5 4 4 2 2 3 1 1 3 5 6 6 6 5 6 6 3 3 7 9 9 10 8 7 7 3 3 5 4 5 6 5 5 4 7 10 9 10 13
42 40 39 37 36 36 36 37 36 34 33 32 32 31 30 30 29 29 29 28 27 25 25 24 24 23 22 21 18 15 9 6 5 11 22 25 21 18 16 17 14 11 9 8 10 10 11 11 8 6 5 4 2 2 4 2 3 5 5 5 6 5 4 4 5 4 2 6 9 9 10 6 5 9 6 5 8 8 7 7 8 7 8 10 11 11 12 12
42 41 39 38 37 36 36 37 36 35 34 33 31 30 29 30 29 29 29 28 27 26 26 25 25 23 21 20 17 13 8 2 4 15 28 28 23 19 15 16 14 11 10 10 11 11 13 11 7 8 6 5 3 3 4 4 4 4 4 5 5 5 6 4 5 6 4 5 9 9 8 5 4 7 7 6 7 8 8 7 8 9 10 11 12 13 13 14
43 41 40 39 37 36 36 37 37 35 33 33 31 31 30 29 29 29 29 28 27 26 25 25 24 23 20 17 14 12 9 2 6 13 20 23 26 23 19 18 14 12 12 12 13 11 13 12 8 8 6 5 3 3 5 5 4 3 4 4 3 8 6 5 5 5 5 3 5 9 7 7 5 5 6 6 6 7 8 8 8 8 10 13 14 14 15 15
44 43 41 39 38 36 36 37 37 36 34 33 32 31 29 29 29 29 28 27 26 25 24 24 23 22 19 15 15 15 10 1 7 14 15 18 23 23 22 21 19 15 12 14 13 10 12 12 9 7 6 6 5 5 7 6 2 3 5 3 2 5 5 7 5 4 4 1 4 8 8 7 6 5 7 8 6 2 2 3 4 2 5 13 15 15 16 15
44 43 42 40 39 37 37 37 37 36 34 33 32 31 29 29 29 28 27 26 25 24 24 26 26 23 18 17 19 14 8 3 2 10 15 17 21 21 19 20 21 16 13 13 9 7 10 10 8 7 6 6 7 6 6 5 0 4 5 1 3 2 3 6 5 3 3 4 6 7 6 6 7 7 6 8 7 3 8 7 7 5 5 12 16 15 15 15
45 44 43 41 40 38 37 37 37 36 35 34 32 31 29 29 28 27 26 25 24 25 25 27 27 25 20 18 16 6 6 7 3 6 6 9 17 18 19 22 22 17 14 13 9 8 9 10 9 7 7 6 7 7 4 3 3 6 4 5 1 4 4 4 4 3 2 4 4 3 4 6 8 6 3 7 9 4 8 7 7 6 5 9 14 14 15 16
47 45 44 42 41 39 38 38 37 35 34 34 32 30 29 29 27 26 26 25 23 25 25 25 24 25 25 20 12 3 8 9 7 5 5 2 11 17 21 23 22 19 17 15 13 11 10 11 10 7 8 6 5 7 5 4 7 9 4 5 3 3 5 4 4 3 2 2 3 3 5 4 3 0 1 8 8 6 7 5 5 5 6 7 10 12 13 14
47 46 45 43 41 40 39 38 37 35 34 34 33 31 30 30 28 25 26 24 23 24 24 25 23 23 25 19 8 5 11 12 8 4 5 4 8 17 22 21 22 21 18 16 15 14 10 9 11 7 5 4 4 5 6 7 6 6 2 5 4 3 4 3 3 3 2 2 3 6 6 3 2 2 5 10 5 7 6 4 5 5 5 7 8 10 12 12
48 46 44 42 42 41 39 38 37 35 35 34 33 32 31 30 27 25 25 24 23 23 23 25 26 27 24 15 9 8 7 13 13 6 0 3 6 15 20 19 22 22 16 14 15 15 11 9 8 3 3 2 4 3 6 7 2 4 6 6 5 4 3 1 2 3 2 3 3 5 5 3 3 1 6 6 5 6 5 6 6 6 7 7 8 9 11 12
47 46 44 42 41 41 39 38 37 36 35 34 33 32 31 30 27 25 23 22 23 22 24 27 30 32 23 12 13 8 3 9 16 13 6 2 6 15 20 19 21 19 14 13 14 15 14 10 6 3 2 2 4 3 4 3 1 5 9 7 5 3 3 1 2 4 2 3 3 3 2 3 3 3 5 4 6 4 7 8 7 7 7 8 8 8 8 10
47 46 44 43 42 41 39 38 37 37 35 33 34 32 30 29 26 24 21 20 21 20 23 27 30 30 17 10 11 6 5 8 13 13 9 7 8 16 19 17 19 17 13 12 13 14 10 7 9 7 3 2 4 3 3 2 2 6 9 6 5 3 4 3 3 3 2 2 3 2 2 5 7 10 7 6 5 4 5 7 7 8 7 7 8 7 7 9
48 46 44 43 42 40 39 39 38 37 34 32 33 31 29 28 25 23 22 20 19 21 23 24 30 26 10 9 8 5 6 6 9 11 12 12 11 15 16 14 17 17 12 9 9 12 9 5 10 10 2 2 2 2 2 4 3 6 7 5 6 5 6 6 4 3 2 2 2 3 4 7 12 15 8 8 5 4 5 7 6 7 7 7 7 7 7 9
48 46 45 43 42 41 39 39 38 37 34 31 31 30 28 26 24 23 21 20 18 20 21 22 29 22 7 6 5 5 6 5 8 11 13 14 12 13 12 11 15 16 13 7 4 10 12 5 6 6 1 2 2 3 3 5 4 6 5 4 6 6 5 7 5 6 5 2 2 4 5 7 7 11 8 6 5 6 7 8 7 7 6 7 7 7 7 9
48 46 45 43 42 41 40 39 38 36 33 31 31 29 27 25 22 22 19 19 19 19 19 20 25 15 6 5 3 6 10 6 7 9 11 13 12 11 9 9 12 11 11 8 5 8 10 6 4 4 3 1 5 6 5 4 5 6 5 6 7 6 5 7 5 6 4 3 5 6 6 8 4 8 6 3 4 6 8 9 8 7 7 7 6 7 7 8
48 47 45 44 43 41 40 38 36 35 32 30 30 27 26 23 21 20 19 18 18 19 18 17 22 12 6 5 3 5 9 6 8 9 12 14 10 10 11 11 9 7 7 6 7 8 8 6 2 1 3 4 6 7 5 5 6 6 7 7 7 7 5 5 4 4 2 3 8 9 5 6 3 7 4 3 4 6 8 8 8 8 7 7 6 6 7 7
48 47 46 45 44 42 41 38 36 34 32 32 31 28 25 22 21 19 18 17 16 18 15 11 17 11 5 4 3 6 8 6 9 10 14 14 9 12 14 10 8 8 8 6 7 8 7 5 2 1 3 5 7 7 7 7 7 7 7 6 6 9 7 4 3 3 4 4 8 10 8 9 3 5 5 5 5 5 7 7 8 7 7 7 6 6 7 7
49 48 48 46 44 44 41 39 37 34 35 35 32 28 25 22 22 19 18 17 14 15 8 4 13 8 4 7 5 5 8 9 11 11 14 13 11 13 11 7 9 12 11 7 6 7 6 4 3 5 6 7 9 8 8 8 8 8 8 7 5 8 11 8 3 5 8 6 7 9 10 14 11 4 6 7 7 6 6 6 6 6 7 7 7 7 8 8
50 48 48 47 45 44 42 40 39 37 39 37 32 30 27 22 18 14 16 16 13 11 6 7 14 5 2 10 8 6 10 13 12 10 11 10 11 12 7 8 11 11 10 6 6 7 6 5 5 7 7 9 10 11 10 6 7 10 10 9 6 6 9 6 4 3 6 6 8 12 11 13 14 11 8 8 9 7 7 6 6 6 7 7 7 8 8 9
50 49 49 47 46 45 44 43 40 42 42 38 36 30 21 18 12 8 11 12 11 6 2 11 16 3 2 9 10 12 12 11 9 7 10 12 12 11 8 8 9 7 8 8 7 5 4 6 7 9 10 12 13 13 8 1 3 9 10 10 7 6 6 5 6 3 2 5 9 13 13 13 13 13 11 8 9 9 9 9 9 8 8 8 9 8 9 10
50 49 48 47 47 46 44 45 43 43 42 41 38 21 13 17 10 10 15 10 7 2 3 15 17 2 3 6 11 15 11 6 5 7 12 14 11 10 7 7 9 7 6 8 8 4 3 7 10 12 11 10 12 10 4 0 3 6 7 8 8 7 4 4 5 4 2 3 7 9 11 14 13 12 12 10 10 10 10 11 12 12 11 9 10 10 10 8
51 49 49 47 47 47 46 46 45 43 41 41 33 12 8 11 7 16 20 9 5 3 1 17 14 3 5 7 9 9 8 7 6 8 12 13 10 8 7 7 10 8 5 8 7 5 6 9 11 11 5 3 4 4 3 4 4 5 5 6 7 5 4 4 4 5 4 3 3 3 6 12 13 13 13 13 13 12 11 12 12 12 11 10 10 9 8 8
51 49 48 47 46 47 47 45 44 43 39 35 28 10 4 13 24 30 18 7 7 2 4 15 11 6 7 7 6 5 8 10 8 9 11 12 8 5 7 9 10 8 8 10 8 7 7 7 7 6 7 6 3 4 7 6 5 6 5 6 5 5 5 3 5 6 4 4 2 3 6 9 11 12 13 14 13 10 8 8 8 7 8 8 7 4 4 7
50 50 47 47 48 46 46 45 41 39 34 29 25 13 7 26 36 29 11 6 8 2 3 8 6 7 8 5 6 8 7 6 6 9 12 12 7 5 8 10 10 9 9 12 12 9 6 0 1 3 7 9 7 7 9 7 6 7 6 7 4 6 5 1 5 7 3 4 3 4 6 8 10 12 13 10 6 7 6 6 7 7 8 7 5 5 5 7
50 50 48 48 47 46 47 41 35 34 28 23 23 17 15 31 32 20 8 6 7 3 2 4 2 5 8 5 5 6 5 5 2 5 10 9 5 6 6 4 6 9 12 14 13 10 4 1 1 4 6 9 9 9 10 8 7 6 7 8 3 3 5 6 7 6 2 5 5 3 5 6 6 12 13 6 4 7 7 7 10 9 8 7 6 7 7 7
52 49 50 49 46 50 43 27 27 33 24 19 22 18 19 27 23 15 6 4 6 5 6 7 4 7 10 7 5 5 7 6 1 3 9 6 2 3 5 3 0 6 12 11 7 4 2 1 1 5 7 7 7 7 9 9 8 6 4 6 3 0 3 7 7 5 3 2 2 3 6 5 3 7 9 6 5 8 7 7 10 8 7 7 6 6 5 5
53 50 51 49 49 51 32 16 27 32 17 15 23 20 22 24 15 8 3 3 7 7 7 5 3 9 10 8 11 7 6 8 4 3 5 3 2 0 3 7 3 2 5 5 3 1 4 5 2 5 7 7 7 7 8 10 9 3 1 2 5 4 5 8 7 6 3 1 2 3 5 5 5 4 5 5 5 7 8 9 9 7 7 6 5 4 4 4
52 52 52 48 52 47 25 20 32 28 12 12 22 23 23 20 8 2 3 4 5 6 7 3 2 8 7 6 12 6 3 11 8 5 3 2 2 1 3 9 8 5 3 4 7 1 4 6 6 8 8 7 6 2 5 11 8 1 2 1 4 3 5 7 6 5 1 1 4 6 4 4 7 4 4 4 5 9 10 11 10 8 6 5 4 3 3 3
52 53 50 49 50 35 19 25 32 27 17 13 21 26 22 14 4 2 3 4 4 4 4 5 5 8 7 7 10 4 3 6 2 4 6 3 1 1 1 6 8 9 3 0 4 1 2 2 3 5 6 5 3 5 2 5 4 3 3 3 5 3 2 4 5 4 2 4 7 6 7 5 6 5 5 4 5 9 10 8 8 7 5 3 2 2 2 2
53 52 50 52 44 25 20 26 28 29 22 17 24 28 19 8 4 6 5 4 6 5 3 6 8 11 13 12 9 6 6 2 2 6 7 5 4 1 1 1 5 8 3 3 4 3 2 1 1 0 1 1 4 6 5 3 4 7 7 6 6 4 3 2 3 2 4 7 4 3 3 4 5 5 5 3 2 4 6 5 6 5 4 3 2 1 1 1
53 50 53 51 35 24 22 21 26 30 23 22 27 23 12 4 4 7 6 4 7 5 4 7 11 15 18 16 10 8 7 4 5 10 9 7 6 5 4 3 3 5 3 2 3 3 3 3 2 2 1 1 4 5 5 3 4 5 5 6 5 3 3 3 3 3 6 6 1 2 1 3 6 5 2 1 2 2 2 3 6 6 5 4 2 1 1 1
51 49 53 43 28 23 15 15 30 30 20 24 24 12 7 6 5 7 6 7 7 6 8 12 15 16 19 17 10 10 9 6 8 12 10 9 7 8 8 6 6 5 4 6 4 3 4 3 2 2 1 3 4 5 4 1 3 3 5 7 6 4 4 5 5 5 7 3 2 1 0 3 7 8 7 5 3 3 2 1 4 6 5 4 3 2 2 2
49 51 50 36 27 20 10 19 37 30 23 25 14 4 6 7 8 9 8 7 5 6 10 13 15 16 18 16 10 11 9 6 10 11 10 10 9 8 4 3 9 5 3 7 5 4 3 1 3 3 2 4 6 5 5 4 6 7 8 8 7 6 5 6 6 5 6 1 2 1 1 3 6 7 9 9 4 4 4 2 3 4 3 3 2 2 2 2
49 51 42 30 27 17 11 26 35 30 29 21 6 5 8 8 8 10 10 6 3 7 11 14 16 17 18 13 11 13 7 5 11 10 9 10 8 8 5 5 10 4 2 7 5 5 6 3 4 5 3 5 7 3 1 4 8 7 4 4 6 6 5 5 5 5 4 2 2 2 2 5 4 1 2 2 2 3 4 4 3 3 2 2 1 1 2 3
48 44 31 25 24 13 15 30 33 30 26 11 4 8 9 9 8 9 9 6 6 9 13 16 16 16 15 9 10 14 5 3 11 9 8 11 8 9 9 8 11 6 6 7 3 5 7 3 1 1 0 3 5 0 2 2 6 3 1 2 5 4 1 2 0 1 1 1 2 4 3 5 3 2 3 4 4 2 3 4 2 2 2 1 1 3 4 4
43 33 23 22 19 11 18 32 33 28 15 5 7 9 8 7 6 7 9 8 9 12 15 16 13 12 13 7 9 13 2 1 11 9 7 10 9 10 10 9 11 10 8 7 3 3 6 2 2 1 0 1 1 1 2 0 3 2 2 3 3 1 2 2 1 2 0 4 3 5 4 4 4 6 5 5 6 6 5 4 5 4 4 3 3 4 5 5
34 24 17 18 16 12 22 33 31 20 7 3 9 9 5 3 1 4 10 10 13 16 15 13 9 10 12 7 9 14 6 4 10 8 6 9 8 11 12 8 11 14 11 7 3 2 4 2 2 0 2 3 2 1 2 2 0 2 3 4 2 1 1 1 2 1 2 6 3 4 6 5 4 4 2 5 6 8 8 7 6 6 6 5 5 6 6 6
27 19 13 15 16 14 24 32 25 12 2 2 10 11 4 2 1 5 12 14 15 16 13 9 8 10 12 10 10 14 11 8 9 8 7 7 6 11 14 8 9 14 10 3 1 2 4 3 1 2 1 3 1 1 2 1 0 0 2 1 1 2 3 3 3 3 4 6 4 5 7 6 5 5 2 5 8 9 10 9 8 9 8 6 6 7 8 7
21 13 8 14 18 18 26 27 15 7 4 5 10 10 3 3 1 4 12 16 14 13 12 9 8 9 10 12 12 14 14 11 11 9 7 7 5 9 15 9 6 11 9 4 2 3 3 3 1 1 1 2 2 2 5 5 3 0 1 1 0 1 3 3 4 4 4 5 5 4 5 4 6 7 7 7 9 10 13 12 10 10 9 8 8 8 8 7
11 5 7 14 19 22 27 19 8 6 6 7 7 5 5 5 1 1 3 8 8 7 8 11 11 9 10 13 13 12 13 12 12 10 8 9 7 6 13 12 8 9 8 4 3 3 2 2 2 2 1 2 3 3 5 5 5 4 4 5 4 2 1 1 3 3 3 5 6 5 5 4 3 6 9 10 7 8 11 12 9 8 9 9 9 9 8 7
3 4 8 16 23 27 23 11 6 8 6 6 5 3 5 6 5 4 1 3 2 0 2 8 11 9 9 12 13 11 10 10 11 9 7 10 9 6 9 11 10 10 7 4 4 4 2 2 3 4 3 4 2 0 1 0 2 4 5 7 7 5 4 3 4 3 1 3 4 4 5 3 1 2 5 5 2 1 3 6 6 7 8 9 9 10 9 8
3 5 7 19 28 25 15 7 6 7 6 5 4 4 5 6 7 8 3 1 2 2 0 4 7 8 9 9 11 12 10 9 11 11 8 11 12 8 6 8 10 12 8 6 4 1 1 2 4 3 3 2 1 2 1 0 0 2 3 4 5 6 6 6 6 4 3 2 0 2 4 3 1 1 2 0 2 3 3 1 4 7 8 8 9 9 8 7
4 4 6 20 29 19 8 7 6 6 5 3 4 5 4 5 7 7 6 4 3 1 2 3 4 5 6 7 9 12 12 8 10 12 9 10 9 3 4 9 12 13 9 5 4 0 1 3 4 3 2 1 0 2 1 1 1 3 4 4 5 6 6 5 2 1 3 4 2 3 5 4 1 1 1 1 2 1 1 1 2 5 7 8 8 8 7 6
4 4 5 14 24 15 6 7 9 9 7 6 7 5 3 3 6 8 9 8 4 4 6 4 3 4 4 5 8 12 13 7 8 11 8 7 5 2 4 11 13 11 7 5 7 5 2 4 4 4 3 2 3 3 2 3 3 5 6 6 8 6 2 1 1 3 3 6 7 6 7 5 1 1 1 1 1 2 2 2 2 3 6 7 7 7 7 7
4 4 4 5 13 11 5 2 5 9 9 9 10 9 6 3 2 3 7 7 3 4 6 4 4 6 6 6 7 10 13 7 5 9 7 4 4 2 2 9 12 10 3 0 7 8 4 4 5 6 6 5 6 6 5 5 4 4 4 5 9 9 6 4 4 5 5 6 8 7 8 6 1 2 2 3 3 4 4 4 4 4 6 7 7 7 7 7
3 3 2 3 4 6 5 3 3 6 11 11 9 10 11 7 2 1 3 5 3 2 4 4 5 7 8 10 9 10 13 5 2 5 8 6 3 2 1 3 6 6 3 3 6 7 4 3 6 10 10 9 10 10 8 8 6 7 10 11 12 14 13 9 5 6 8 7 6 8 10 11 6 4 5 5 6 7 6 6 6 5 6 7 7 8 7 7
1 2 3 4 3 5 7 6 6 6 10 12 8 9 13 11 8 5 3 3 5 4 3 3 6 9 10 13 10 9 12 7 3 4 9 6 4 4 2 1 2 2 5 2 5 4 3 4 8 12 13 13 14 12 11 11 10 12 15 15 16 15 14 11 8 10 11 8 7 10 12 14 12 7 8 8 8 8 7 8 8 8 8 8 8 8 8 7
1 1 1 1 1 5 7 10 12 10 13 14 8 9 15 13 11 10 4 1 4 6 3 2 7 12 15 15 10 8 11 8 5 6 6 5 5 5 4 1 1 2 2 2 2 1 3 7 9 10 12 12 7 4 8 11 10 12 13 13 14 14 14 14 13 15 13 9 11 14 15 16 14 10 10 10 9 8 7 7 6 7 9 9 8 8 8 8
2 3 1 4 2 2 3 7 13 13 13 14 9 9 16 16 13 10 6 4 5 7 5 6 11 14 15 15 11 9 11 10 8 7 5 5 5 5 4 2 2 3 2 3 2 1 2 6 9 9 10 12 7 4 6 9 9 10 12 11 11 12 15 15 14 16 16 14 15 17 19 16 11 10 11 7 5 4 3 4 5 8 9 9 8 8 8 8
2 2 1 2 3 1 1 6 12 12 10 11 11 9 13 17 15 10 6 6 9 9 6 7 12 13 13 15 12 9 13 13 10 9 9 8 5 5 6 4 4 4 3 3 3 1 2 5 10 8 6 10 8 5 5 7 8 10 10 8 8 10 13 14 13 15 16 16 17 19 18 14 9 8 8 3 5 5 5 5 7 9 8 7 8 9 9 9
2 2 1 2 2 1 2 6 10 11 10 11 11 8 12 18 16 10 5 3 4 7 8 8 11 10 7 10 12 10 11 9 5 9 14 11 7 7 6 4 7 7 4 5 4 3 2 2 5 7 6 9 9 8 7 5 3 7 7 6 9 10 11 12 13 15 15 15 17 16 13 12 9 7 6 4 5 5 6 7 7 7 8 9 10 11 11 11
2 2 2 1 2 2 2 5 9 9 8 10 12 10 10 14 13 10 7 2 1 2 6 9 12 9 5 10 12 7 6 6 6 6 9 5 3 5 3 3 9 10 7 7 5 3 5 4 4 7 8 10 10 8 6 5 2 7 7 10 13 12 12 13 13 15 15 15 14 12 12 12 6 6 7 5 6 6 6 6 7 7 10 12 12 13 12 11
Wind_Direction
192 192 191 190 191 191 192 194 194 193 192 193 195 196 197 197 196 196 196 198 200 202 201 200 200 197 195 192 193 200 204 216 223 222 224 230 234 235 227 227 260 294 311 289 255 261 257 238 224 205 214 193 211 203 167 221 228 216 218 211 211 206 189 172 173 159 120 128 138 163 185 190 159 166 171 162 216 194 166 180 154 143 134 103 110 120 128 143
192 192 192 191 190 191 192 194 194 193 192 192 193 194 195 195 194 195 195 197 198 198 199 199 200 198 199 196 195 197 190 202 228 246 233 226 239 247 232 234 255 273 284 267 242 244 244 237 213 199 215 195 173 175 177 172 191 218 220 210 218 199 133 131 144 118 83 130 144 165 186 200 163 160 170 199 195 187 198 187 179 177 151 129 125 133 141 157
191 192 192 190 190 190 191 193 193 192 193 191 192 193 193 193 193 194 194 195 195 195 196 195 197 196 197 197 194 187 165 156 265 253 240 230 239 245 232 233 245 258 259 250 245 245 254 258 221 206 215 208 187 184 197 167 183 228 227 221 208 139 102 101 129 115 82 106 148 164 175 185 154 147 169 214 197 188 211 191 184 191 174 156 141 142 149 163
191 191 191 190 189 189 190 193 194 192 192 190 189 191 191 191 192 194 192 193 194 194 194 192 194 192 190 189 180 164 133 78 259 246 242 232 234 237 229 234 244 250 247 244 245 249 266 268 232 215 218 213 184 196 211 173 181 208 209 245 163 137 130 123 117 114 100 82 155 152 162 179 153 150 182 217 207 197 217 201 189 197 184 164 145 145 154 164
190 190 190 190 189 188 189 192 194 192 190 189 188 189 189 189 192 193 192 193 192 191 192 192 193 189 183 173 160 151 136 145 243 228 231 225 228 232 229 237 246 243 236 236 240 248 257 255 232 216 220 216 182 201 212 181 187 210 206 326 49 151 146 127 107 99 110 91 155 151 168 169 140 173 201 220 227 190 157 156 151 155 156 153 147 148 155 167
189 189 189 189 187 187 189 191 194 192 190 189 187 187 187 188 191 190 190 192 190 188 189 194 195 186 175 163 156 156 169 197 214 202 210 217 223 227 221 225 234 229 221 221 224 236 239 232 219 210 213 216 199 199 199 174 191 241 207 67 9 17 97 122 109 97 127 158 169 161 153 144 160 193 198 226 241 71 69 71 75 64 91 139 146 150 159 172
188 188 188 187 185 186 189 191 194 193 189 188 187 186 185 187 187 186 185 186 188 188 188 196 196 186 172 154 149 163 239 230 192 166 176 209 221 224 212 206 214 214 205 203 204 219 225 216 210 211 212 210 207 198 176 164 206 254 219 148 74 20 76 97 96 118 165 161 148 123 136 161 192 194 153 230 238 115 93 82 84 91 109 142 152 159 169 176
188 188 188 186 185 186 190 191 192 191 189 187 185 184 184 186 185 183 182 182 184 185 187 191 189 183 171 149 138 190 245 227 188 148 73 118 209 212 201 196 203 202 195 195 200 211 217 214 207 208 216 210 202 192 168 171 206 241 239 131 120 44 82 75 90 140 178 161 112 128 170 171 191 162 145 229 226 142 122 113 111 117 130 159 170 172 175 179
188 187 187 186 185 186 189 191 191 190 188 186 183 182 183 186 186 182 179 179 181 182 181 180 176 171 163 148 146 212 223 219 197 149 58 78 192 200 191 189 195 194 193 196 203 213 213 214 209 210 237 224 194 187 180 193 210 218 190 107 119 84 84 92 109 138 170 171 150 173 175 130 74 350 249 225 195 124 133 157 157 156 163 175 180 181 183 184
187 186 186 186 184 185 188 190 190 189 187 185 182 181 182 184 186 181 175 176 180 179 174 169 165 160 158 157 185 217 215 210 213 220 26 93 179 190 184 185 189 187 190 195 206 212 211 215 204 202 311 259 193 189 187 202 221 144 129 100 105 88 84 114 118 133 163 153 182 196 164 124 102 264 241 198 136 126 164 186 180 190 200 193 187 187 189 190
186 184 184 184 183 185 187 188 188 187 185 184 182 180 181 183 185 182 176 175 178 176 169 163 160 162 168 183 199 211 165 185 209 219 218 172 180 185 185 188 185 184 188 193 208 214 217 213 168 125 312 236 186 189 183 197 20 131 133 108 99 101 114 140 133 148 188 147 196 244 147 143 132 217 237 135 117 162 189 194 188 204 212 200 193 189 190 194
185 183 182 182 182 183 184 185 184 183 182 183 181 177 177 180 182 180 174 173 176 173 165 162 164 165 175 207 217 209 134 163 198 205 197 180 184 186 187 190 185 186 192 198 209 216 224 198 172 187 219 199 173 169 166 164 158 155 159 149 141 167 172 171 137 154 246 156 179 269 215 211 199 219 220 136 133 153 179 197 188 204 210 199 194 187 192 194
183 181 180 180 180 180 181 182 181 180 180 179 177 173 173 176 176 175 170 171 174 170 166 166 168 170 189 218 214 199 149 153 181 187 183 176 180 185 186 191 188 187 195 207 208 207 215 194 202 207 193 254 186 129 130 130 157 170 191 205 165 198 201 172 149 164 224 117 154 247 241 234 212 210 187 129 155 162 182 205 192 201 201 196 194 190 198 193
179 179 178 178 178 178 178 179 179 178 177 175 173 170 170 172 172 170 166 167 169 168 170 169 169 176 227 219 176 200 187 152 167 177 178 171 165 172 181 189 190 192 195 211 216 199 202 198 225 209 132 298 127 133 151 126 177 179 186 222 192 212 186 150 152 172 187 135 172 230 244 258 209 177 149 123 171 186 207 219 206 202 193 197 196 194 204 197
176 176 177 177 175 175 175 175 175 174 172 169 165 163 165 169 169 166 164 164 165 166 166 167 172 181 246 219 162 192 189 163 163 180 182 171 158 160 168 171 177 191 197 212 226 194 187 177 209 200 132 113 137 167 175 144 194 186 181 208 205 217 162 139 154 174 191 154 184 213 235 253 205 136 123 122 182 201 220 226 213 205 198 202 198 200 210 205
174 174 174 173 172 173 172 170 169 167 164 163 159 156 158 161 161 159 159 158 160 164 157 162 182 204 252 201 139 168 181 176 171 186 189 174 168 157 146 146 148 162 177 195 196 165 165 174 207 243 139 160 180 190 182 171 194 192 205 208 194 208 180 147 155 177 202 149 192 221 252 253 178 118 120 151 187 203 220 227 220 216 212 207 205 207 211 210
172 172 170 169 170 169 167 166 165 162 160 157 150 146 148 150 152 149 147 153 156 158 152 160 188 217 271 158 151 185 173 167 166 178 189 180 175 154 141 141 133 129 131 142 167 155 162 177 167 215 185 193 202 197 191 194 196 191 211 217 188 200 205 178 147 165 185 190 210 217 243 256 223 120 144 171 187 199 215 228 226 222 221 215 213 213 215 219
170 169 168 167 167 166 165 164 162 159 157 150 141 140 141 140 142 139 139 145 138 144 160 197 182 202 250 172 166 165 145 152 159 167 187 182 165 156 149 149 138 136 133 129 166 171 174 178 179 201 198 208 208 200 202 203 200 189 195 211 188 197 214 207 164 157 177 205 226 209 224 246 247 201 162 168 183 204 222 231 238 234 226 218 213 219 223 224
168 167 166 166 166 166 164 162 161 158 151 142 137 137 134 129 129 133 146 153 145 151 192 195 178 193 215 167 142 110 135 153 154 157 181 178 162 161 154 148 147 150 151 147 177 181 176 173 194 212 201 204 207 206 212 214 208 195 191 209 207 200 214 194 107 128 183 203 220 220 227 240 245 235 213 187 183 208 238 241 249 245 236 228 220 223 222 225
167 166 166 165 166 165 163 163 161 159 151 141 142 141 135 137 135 147 168 182 180 181 230 175 181 225 58 143 131 123 134 144 147 155 176 174 162 154 143 147 155 167 172 167 166 166 186 188 196 212 207 204 208 212 217 235 225 205 198 213 220 214 209 159 105 105 196 220 220 226 236 245 249 245 239 221 196 208 232 241 248 244 238 234 226 225 222 226
165 165 165 164 165 164 163 163 161 160 156 150 154 155 157 161 160 166 169 183 186 279 281 169 171 192 55 122 132 133 130 125 145 163 174 177 169 159 154 160 166 176 180 161 148 132 196 209 206 210 211 205 205 209 210 182 227 219 209 210 219 222 200 115 104 120 136 237 230 226 242 252 253 253 250 241 228 224 224 231 242 243 240 237 232 230 228 223
165 164 164 163 163 163 162 163 162 160 157 159 169 179 179 171 130 139 150 146 136 357 203 161 157 89 79 135 146 143 138 137 152 165 173 179 189 186 168 179 180 166 149 147 145 148 194 220 213 197 176 144 167 184 212 232 233 232 224 218 223 211 158 108 115 128 143 223 236 217 250 259 255 255 252 242 240 238 230 229 233 238 238 235 233 231 226 216
164 163 163 163 162 162 163 163 162 161 162 171 185 209 193 144 126 134 140 119 120 64 147 162 169 137 117 146 170 178 156 148 161 172 177 181 194 192 164 181 183 152 153 173 172 176 193 221 214 162 130 136 147 180 211 231 236 231 225 226 219 172 170 199 162 143 160 221 288 318 282 270 259 255 250 239 237 236 227 222 223 231 236 237 239 246 233 217
163 163 163 163 163 164 164 162 161 166 175 185 196 216 166 139 140 146 143 112 130 106 144 169 184 163 142 138 181 199 169 141 159 168 181 186 173 162 171 182 178 158 176 191 191 196 190 218 301 138 155 184 185 185 205 218 224 226 226 233 222 167 173 41 126 144 169 214 252 298 285 272 247 239 242 229 218 227 217 211 222 226 232 240 253 262 247 232
162 163 163 162 164 165 162 161 164 172 181 191 205 219 175 150 155 166 146 116 142 104 130 183 215 170 150 131 173 194 145 121 128 150 175 194 172 154 170 179 184 183 187 190 198 209 197 43 268 156 162 196 193 190 202 207 219 222 219 229 249 179 160 103 126 156 208 217 201 224 259 270 229 221 230 203 169 218 209 213 229 220 210 218 232 237 230 226
162 162 162 162 162 161 160 162 171 174 180 200 212 214 186 167 168 181 161 123 163 142 147 174 185 169 160 154 157 151 156 162 14 109 159 201 243 162 164 149 183 197 184 181 202 222 148 94 200 160 159 181 194 210 202 200 224 224 215 220 210 207 154 138 158 186 234 230 151 194 242 262 217 208 213 189 191 216 198 207 225 212 198 202 213 222 216 217
162 162 162 161 161 161 160 162 168 172 177 208 212 202 189 181 176 191 171 142 180 160 148 162 194 175 164 160 162 162 166 144 98 134 161 188 226 317 184 170 149 187 164 153 193 200 123 142 161 159 166 173 193 219 192 192 224 223 13 235 180 185 192 167 180 212 240 43 116 199 240 265 261 221 162 159 211 226 211 212 212 203 200 198 205 215 218 230
162 162 162 162 163 164 164 159 164 175 183 192 198 193 184 178 177 204 162 168 172 143 151 155 147 163 147 155 174 181 124 133 141 171 138 89 172 294 218 186 174 158 141 169 192 173 102 157 166 158 173 189 198 237 175 190 216 227 23 306 158 172 197 183 199 222 237 338 221 197 189 247 259 232 144 157 231 238 228 214 197 192 193 189 202 212 229 243
161 161 162 161 164 168 173 167 168 181 187 176 182 182 173 166 174 194 183 191 152 123 154 146 143 160 148 163 179 176 118 141 158 146 130 118 149 345 230 190 161 137 103 257 174 63 44 164 179 167 182 189 135 32 13 206 205 153 145 103 93 105 150 177 216 220 186 247 244 192 179 234 266 241 197 177 225 239 234 208 178 176 174 171 195 204 231 234
161 161 161 160 163 169 169 168 177 185 183 174 170 168 161 158 179 176 189 195 149 136 140 146 167 169 161 169 177 175 166 125 57 126 143 155 141 94 347 170 130 123 100 37 80 63 54 78 326 184 183 147 98 64 19 7 115 142 153 119 103 121 129 167 220 225 220 235 239 152 168 244 273 251 217 189 232 245 227 189 160 161 161 158 160 153 211 217
161 161 162 161 162 163 158 167 186 187 181 170 161 159 157 158 190 183 175 153 136 140 152 157 166 165 170 176 170 171 168 112 132 149 150 156 146 143 155 157 123 117 145 144 100 93 95 118 167 72 47 177 119 91 43 30 143 155 163 145 135 139 149 194 196 199 234 235 190 74 30 243 243 241 206 96 8 326 257 209 175 169 158 144 132 121 146 156
161 162 163 164 162 163 167 179 181 180 174 164 157 158 163 147 193 204 159 143 154 173 179 169 165 168 178 179 163 162 160 134 164 169 161 165 168 169 176 179 163 150 185 183 153 129 115 114 128 76 359 227 175 127 85 73 193 202 183 168 178 182 178 210 204 199 230 231 108 96 319 238 245 247 246 267 271 205 234 257 158 154 143 127 111 91 100 119
162 163 165 168 169 175 192 179 174 170 160 159 159 178 168 156 195 199 166 161 162 158 166 164 164 166 172 178 168 158 157 152 172 177 171 170 172 177 193 198 180 182 194 170 150 149 157 128 152 152 174 221 212 176 145 170 194 198 191 187 198 192 185 206 204 207 225 208 93 185 211 250 263 257 250 262 255 175 152 94 78 96 101 85 74 60 83 115
163 164 165 171 176 183 184 173 172 163 154 158 169 171 172 182 192 183 174 173 128 133 150 151 153 161 171 182 168 157 159 161 166 170 170 171 177 181 190 205 196 196 125 154 157 172 186 196 178 169 152 182 202 209 148 170 183 195 204 209 212 208 210 210 206 212 203 120 114 192 207 230 240 146 180 221 59 103 120 102 67 64 76 42 49 106 123 128
162 164 164 170 177 183 171 170 169 160 155 159 163 167 187 193 183 181 174 149 133 142 142 145 149 159 173 177 163 166 176 166 172 176 173 179 189 185 185 194 195 188 154 161 163 175 196 217 131 113 9 175 178 259 357 151 174 188 343 242 227 234 221 183 216 193 151 63 169 187 237 246 253 284 204 161 135 151 139 124 139 159 148 145 159 154 147 141
158 162 164 169 179 183 167 167 165 161 164 166 159 179 205 193 181 183 159 129 144 143 134 147 156 163 172 167 167 176 180 128 175 183 185 193 201 191 188 186 184 187 179 170 152 167 192 202 55 67 93 94 67 10 349 317 176 164 172 200 217 359 68 128 162 98 69 273 208 170 235 256 267 271 230 163 161 173 168 165 172 170 163 168 169 160 153 144
154 156 161 169 179 177 166 166 162 162 182 184 174 190 196 180 205 163 140 124 140 142 138 153 169 177 175 166 177 180 162 140 173 187 190 191 204 198 194 189 179 188 193 181 180 196 180 142 40 40 118 83 18 7 34 4 46 136 180 180 142 35 28 162 232 172 192 248 224 169 222 239 240 248 158 146 180 179 177 185 175 163 171 179 172 164 158 149
147 145 147 164 172 165 162 163 160 160 183 185 195 203 176 93 49 138 135 132 142 151 156 160 169 188 183 170 177 175 164 162 177 191 186 182 205 195 188 189 181 189 193 157 132 191 174 160 42 11 85 98 112 200 157 153 121 355 250 207 134 214 214 190 218 223 210 235 244 205 215 234 233 225 169 170 188 184 183 190 185 175 173 178 175 166 157 148
141 138 130 155 162 154 155 157 153 155 169 186 204 207 154 89 65 145 140 143 151 162 171 167 161 186 193 179 170 167 172 178 172 180 193 187 191 186 185 185 176 187 184 142 146 158 157 207 199 61 27 104 124 213 195 179 167 189 283 244 99 264 230 200 211 231 233 237 249 223 205 222 224 220 228 212 192 190 191 192 194 186 177 177 173 163 155 150
144 129 123 155 157 147 146 147 145 167 186 201 204 189 138 119 132 248 137 139 154 170 183 175 162 171 185 179 170 164 178 185 173 183 203 184 177 192 193 186 167 173 165 133 164 145 110 236 188 108 38 161 174 212 206 188 175 181 193 185 185 202 228 259 236 231 245 239 244 245 237 238 202 201 224 225 208 196 193 191 190 179 171 170 164 158 156 153
153 104 129 159 155 144 142 142 165 180 197 209 192 146 135 131 142 171 3 27 100 77 214 175 163 165 170 172 171 162 172 186 182 190 202 189 195 211 202 190 164 147 134 134 183 165 137 182 157 141 174 190 186 26 332 245 163 192 201 191 196 189 165 210 220 191 225 245 247 262 261 258 112 150 229 224 185 105 182 187 174 157 158 160 157 159 160 158
115 105 138 161 157 151 150 156 181 192 209 200 156 103 127 139 148 161 161 36 89 43 323 158 151 161 164 169 171 162 164 181 187 192 203 205 207 202 193 186 154 144 153 172 181 168 71 118 119 130 162 186 123 62 44 341 222 255 246 218 212 200 192 214 218 184 187 215 317 312 277 267 94 49 313 328 78 56 31 35 151 150 154 157 154 152 149 146
91 98 124 157 163 167 166 161 180 207 211 166 106 85 117 142 146 152 163 174 153 121 165 141 131 160 167 167 167 164 167 176 189 197 205 208 206 191 163 161 146 152 169 165 155 144 36 123 125 115 97 48 104 120 107 138 233 250 240 224 219 210 202 215 239 225 191 181 177 232 251 252 175 66 350 357 27 47 11 321 176 155 156 157 150 141 135 129
93 92 80 152 171 187 195 171 187 198 183 156 140 124 98 123 144 157 174 181 175 167 162 144 148 161 153 157 163 169 172 177 199 205 209 199 190 52 119 154 152 163 179 175 172 176 176 165 152 141 144 163 193 194 195 199 211 224 222 213 215 218 185 93 292 271 227 193 196 220 250 251 210 83 182 181 203 236 228 220 212 177 163 157 146 142 142 136
109 97 46 133 174 201 221 185 196 190 171 163 164 158 142 120 119 169 174 166 154 169 159 141 149 140 131 150 158 171 182 188 200 202 209 196 168 51 114 161 170 179 183 160 169 162 170 183 164 165 180 185 195 206 202 189 187 209 219 209 208 211 199 186 219 240 228 202 195 216 249 252 207 110 204 186 173 211 205 180 197 207 176 161 151 151 151 149
122 112 96 113 160 219 242 294 268 200 175 168 170 170 164 153 135 260 187 161 154 162 126 119 144 136 137 160 163 174 188 184 69 178 197 188 139 71 60 160 184 179 74 73 166 153 142 191 193 197 203 204 211 218 200 170 161 187 202 205 205 204 202 204 218 223 222 222 212 217 235 248 242 184 195 205 192 201 200 178 185 196 176 163 157 157 156 156
86 115 142 133 142 202 218 233 238 215 183 175 173 178 175 159 145 172 227 196 179 171 112 107 162 160 160 169 170 178 186 173 87 162 188 180 119 77 65 72 185 115 59 125 187 150 129 193 209 212 220 222 222 220 195 174 177 194 202 206 206 203 199 201 216 224 223 229 236 227 226 241 245 208 191 206 202 201 201 189 190 189 177 167 157 154 157 155
39 86 88 42 139 187 202 207 207 202 185 181 179 176 177 166 155 171 192 151 182 188 165 160 188 182 173 169 165 170 177 178 181 182 173 155 133 111 97 96 148 100 67 158 191 117 171 196 205 215 233 236 223 184 178 186 197 205 207 207 204 199 194 198 215 227 225 224 238 238 229 233 241 228 212 207 196 198 201 187 178 174 170 164 156 155 161 159
63 91 49 360 26 171 188 180 189 197 188 184 189 184 183 179 169 166 151 130 177 205 205 192 191 188 179 172 170 167 170 179 191 186 151 127 142 142 137 158 167 154 161 165 163 257 211 198 199 207 235 240 215 144 174 198 203 212 219 212 195 187 192 200 215 226 227 228 236 244 244 243 243 234 227 215 173 163 151 124 144 169 173 166 160 163 169 170
87 98 111 70 61 55 104 149 174 196 195 190 195 191 191 191 177 155 139 155 176 188 203 198 183 180 178 178 182 182 183 188 186 173 155 141 153 177 175 173 152 142 172 175 162 234 236 197 192 190 233 246 221 169 185 204 209 218 222 205 176 178 194 206 218 226 229 234 240 248 255 258 253 226 216 184 100 109 125 150 177 186 177 161 162 174 178 179
68 22 55 121 101 78 165 157 173 192 194 195 197 186 191 197 185 154 138 179 183 173 185 183 162 153 163 184 196 200 188 181 157 158 165 162 169 185 182 164 144 142 173 187 165 175 189 191 187 182 217 241 225 209 199 182 216 242 228 190 177 183 194 202 213 220 219 225 238 246 250 254 249 215 190 149 127 149 169 182 192 191 178 173 180 188 187 184
77 15 8 70 107 119 175 165 173 189 195 196 199 191 187 192 184 163 155 178 355 146 181 175 152 139 164 194 202 194 143 112 75 115 156 147 126 149 142 156 160 154 166 179 175 179 180 184 184 177 207 231 223 215 192 147 204 251 227 200 194 197 206 209 216 222 216 215 228 234 237 246 237 185 192 188 169 178 188 190 193 192 188 188 190 192 189 182
Height
725 728 730 733 737 741 744 746 749 752 754 755 758 761 763 766 768 771 773 775 778 780 783 786 788 791 791 792 794 796 798 800 802 803 802 796 796 799 801 802 802 803 804 804 806 806 805 804 802 802 802 802 802 801 802 801 800 804 807 811 812 809 808 804 803 805 805 808 813 815 812 812 816 818 816 817 817 817 819 819 818 820 821 824 827 830 832 834
722 725 728 731 735 739 742 745 748 751 753 754 757 760 762 765 768 770 772 774 777 779 782 785 788 790 790 792 794 796 799 801 803 802 796 794 796 798 800 801 803 804 804 805 805 805 805 803 800 801 801 802 802 802 803 801 802 804 805 809 808 802 801 796 797 801 801 805 810 812 811 810 812 814 816 819 819 818 820 819 818 820 821 824 826 829 832 834
719 723 727 729 732 736 740 743 747 750 752 754 756 758 761 764 767 769 771 773 776 778 781 783 786 788 790 792 793 797 800 803 804 797 790 793 796 796 799 801 802 804 805 805 805 805 804 801 800 800 801 802 802 802 804 802 803 802 803 809 803 796 800 797 797 801 802 803 807 811 811 812 811 811 815 818 817 818 819 817 817 819 819 821 824 827 831 834
717 720 724 727 731 734 738 742 745 749 751 753 755 757 760 763 765 768 770 772 774 777 779 782 785 787 790 791 795 798 800 806 801 791 790 793 794 795 798 800 802 804 804 805 805 805 805 802 801 800 802 803 801 803 804 801 802 802 803 806 798 794 801 801 799 802 803 804 805 809 812 814 811 811 814 815 817 818 814 810 812 814 812 816 821 824 829 832
715 718 722 725 728 732 736 740 744 747 750 752 754 756 759 762 764 766 769 771 773 776 779 782 784 787 790 791 797 797 802 810 796 785 791 791 792 795 797 799 801 803 804 805 805 805 805 803 801 801 803 804 803 805 803 798 799 802 801 801 797 795 801 802 802 804 805 806 806 810 813 812 811 812 813 813 816 814 809 806 806 808 807 811 817 822 826 830
712 715 720 723 726 730 735 739 742 746 749 751 753 755 758 760 763 765 768 770 772 775 778 780 782 786 790 791 796 797 801 804 788 782 789 788 790 793 795 798 799 802 804 805 805 805 805 803 803 805 804 803 804 804 802 798 800 805 800 799 800 798 802 804 804 808 807 807 809 810 809 808 812 814 811 812 812 809 807 807 808 809 809 810 815 819 823 826
710 713 718 721 724 728 733 737 741 744 747 750 752 754 757 759 762 765 767 769 771 774 777 779 781 785 789 792 797 800 800 794 783 784 786 785 789 789 792 796 797 801 802 804 804 805 805 803 804 804 804 804 803 802 801 800 802 805 802 800 804 803 805 806 807 810 809 808 808 808 809 810 813 813 813 813 808 807 809 809 810 812 811 812 814 817 820 822
708 712 716 719 721 725 731 735 739 743 746 749 751 754 756 759 761 764 767 769 771 774 776 778 781 784 787 791 797 804 800 789 783 784 783 784 787 787 791 794 796 799 800 802 802 802 804 803 803 802 804 804 800 801 802 803 804 805 803 802 806 807 808 809 810 812 810 809 809 810 811 812 813 814 816 812 805 805 809 810 811 812 813 814 814 816 817 819
706 710 714 717 718 723 730 734 738 741 745 748 750 753 755 758 760 763 766 769 770 773 775 777 780 784 787 791 798 802 793 784 783 783 783 784 785 787 789 792 795 796 798 800 800 801 802 802 801 799 802 801 799 801 801 805 806 802 803 805 807 809 810 811 811 812 812 810 810 811 812 813 815 817 814 807 804 805 807 810 811 812 814 814 814 815 815 817
704 707 711 714 717 722 728 732 736 740 743 747 750 752 755 757 760 762 765 768 770 772 775 777 779 784 789 792 799 798 785 780 783 782 783 784 785 787 788 790 792 794 796 798 798 799 799 799 798 797 800 799 799 802 800 803 803 799 804 807 809 811 811 811 811 812 812 811 811 810 813 815 816 819 813 803 804 806 807 810 811 812 813 813 813 814 814 816
701 705 709 713 716 720 726 731 735 739 742 746 749 752 754 757 759 762 765 767 770 773 775 776 780 784 788 790 793 789 780 780 782 781 783 784 785 787 787 789 791 793 794 795 797 797 797 797 796 798 802 799 799 802 801 801 801 800 804 808 812 812 812 812 811 813 813 812 813 810 813 816 817 819 810 803 806 807 807 809 810 812 812 811 812 813 814 815
699 703 707 711 715 719 724 730 734 738 741 745 749 751 754 757 760 762 765 768 770 773 774 777 781 784 788 790 785 780 778 779 780 781 783 783 785 786 787 790 790 792 793 794 796 796 796 796 795 800 802 798 800 804 803 800 801 802 803 808 814 812 812 813 811 813 813 814 813 811 816 817 816 814 804 803 807 806 808 808 809 811 810 811 811 812 813 813
697 701 705 710 714 718 723 728 733 737 740 745 748 751 754 757 760 763 766 769 770 772 775 778 782 785 789 787 779 777 778 778 779 781 782 783 785 786 788 790 790 792 793 793 794 795 796 795 795 797 798 798 802 805 802 800 803 805 803 806 813 815 813 810 812 814 814 816 814 815 822 814 804 803 800 803 806 806 809 807 807 808 808 810 810 811 812 812
695 699 704 708 713 717 722 728 732 736 740 744 748 751 754 757 761 764 767 770 772 774 777 780 784 788 789 782 775 777 777 778 779 780 781 783 784 787 788 789 790 791 792 793 794 794 795 796 796 795 797 799 801 804 804 805 806 805 808 808 809 816 815 810 811 813 814 817 814 817 824 810 795 798 801 804 805 806 808 805 805 805 806 808 809 811 810 810
693 698 703 707 712 717 722 727 731 735 740 744 747 750 753 758 762 765 768 771 773 776 779 782 785 788 787 778 774 776 776 778 779 780 782 783 784 786 787 788 789 791 792 793 793 794 795 796 797 797 800 799 800 805 806 808 807 804 814 817 810 812 815 813 812 812 814 816 814 818 822 808 796 800 803 804 805 806 806 804 803 803 805 806 807 808 808 808
691 697 701 706 711 716 721 726 731 735 739 744 747 750 754 759 762 766 769 772 775 777 780 783 785 786 782 775 774 775 776 777 778 780 782 783 784 784 786 788 789 791 792 793 793 794 795 796 799 799 800 802 803 804 806 812 812 807 812 816 813 813 813 813 814 813 814 815 814 817 816 805 799 802 804 805 806 806 806 804 802 803 803 803 805 805 805 806
690 695 700 705 711 716 720 726 730 734 739 744 747 750 755 760 763 767 770 773 775 777 779 782 785 786 779 772 774 773 773 775 776 779 781 783 784 784 786 787 789 791 791 793 794 794 795 797 801 801 800 803 800 800 810 820 817 812 810 808 810 812 811 814 818 816 816 817 815 816 816 806 799 801 804 806 806 806 806 804 802 802 801 801 802 803 803 803
688 693 698 704 710 714 719 725 730 735 739 743 746 751 757 761 765 768 771 774 775 779 782 781 783 786 777 769 771 770 769 774 776 778 782 783 784 784 785 786 787 790 792 795 795 795 796 798 801 803 803 804 799 799 812 815 809 810 812 809 810 810 808 809 814 816 816 819 817 815 817 809 800 799 802 803 805 805 804 803 802 801 800 800 801 801 801 801
687 692 697 703 709 713 718 723 729 734 738 741 746 753 759 763 767 769 771 771 771 774 775 771 772 774 768 763 765 768 769 772 775 779 782 783 784 784 784 786 786 788 792 797 797 795 796 801 805 806 806 805 799 797 801 799 796 801 805 805 808 810 808 805 812 817 815 818 818 813 812 807 801 798 798 798 801 803 802 801 801 801 800 799 799 799 799 799
685 691 697 702 708 712 717 722 728 733 734 737 744 750 754 758 764 769 770 767 761 759 758 757 761 763 760 759 763 767 770 773 776 779 782 782 783 783 784 786 787 789 792 795 798 796 796 804 808 805 801 799 796 794 793 793 792 794 799 802 804 807 807 804 812 819 815 816 814 807 806 804 800 796 793 794 797 800 801 800 800 799 799 798 797 797 796 796
685 691 696 702 707 711 716 721 727 730 731 735 739 738 737 738 742 746 754 760 758 755 753 754 758 761 761 762 763 765 768 773 777 778 781 782 781 783 786 786 790 794 792 791 796 797 799 806 803 797 793 792 792 792 794 796 795 795 798 803 804 804 806 807 813 817 817 818 809 803 807 804 799 797 793 792 794 796 797 797 797 795 796 795 794 795 794 793
684 690 696 701 706 710 715 720 726 729 732 737 736 730 727 726 725 726 737 751 757 755 753 754 758 761 762 764 764 763 765 773 778 778 779 780 780 782 785 786 789 793 792 791 797 803 808 805 795 790 790 791 794 794 796 798 799 800 800 804 806 803 806 813 817 817 818 819 810 806 812 805 796 794 791 790 790 789 789 790 791 791 792 792 791 791 791 792
684 690 696 701 705 710 715 720 726 729 732 734 732 728 727 726 726 729 735 746 756 757 755 756 758 761 764 765 765 764 764 770 776 778 778 779 779 780 783 786 786 790 794 793 798 806 809 801 791 789 791 794 799 799 798 801 801 801 801 804 807 804 807 812 816 819 818 817 816 814 815 805 795 792 788 785 784 783 785 786 787 789 790 790 790 790 791 791
683 690 696 700 705 711 715 721 726 729 731 732 731 728 726 727 727 730 734 742 754 758 757 757 757 758 762 764 763 764 764 766 771 775 776 776 778 779 780 781 784 790 793 790 793 799 801 802 798 794 793 795 801 802 801 804 804 802 802 803 803 803 806 809 813 819 819 819 820 819 818 805 791 791 786 780 783 784 784 787 788 789 789 790 790 791 792 791
683 690 695 700 706 710 716 723 725 728 731 731 729 726 726 726 726 727 731 744 756 758 759 759 758 758 759 762 763 762 763 767 769 771 773 774 775 778 779 779 783 789 789 788 792 793 797 805 804 799 798 796 800 804 801 803 805 804 802 799 799 800 804 812 816 817 819 821 817 818 824 807 783 784 784 779 784 785 784 787 786 785 787 789 790 789 790 790
683 689 694 699 704 710 717 721 722 727 731 729 725 724 726 724 725 726 729 745 758 759 761 760 758 758 757 761 763 763 766 770 770 770 772 774 773 774 779 781 784 786 784 786 791 793 800 809 805 800 802 802 803 804 799 801 805 806 803 798 799 801 804 813 816 816 818 820 818 819 824 811 788 781 779 779 784 783 783 785 782 782 784 786 787 787 787 788
682 688 693 698 702 707 711 714 719 725 726 724 721 723 724 722 726 725 731 756 760 752 758 760 758 756 755 758 759 763 770 769 771 773 771 774 773 772 778 783 786 786 782 787 797 798 801 809 806 801 803 805 806 805 799 799 804 807 807 804 801 803 808 812 814 815 813 815 821 820 818 818 806 787 778 781 784 781 780 781 780 780 782 783 784 785 786 787
681 687 692 697 702 706 709 711 715 717 717 717 717 721 722 722 726 723 737 766 759 742 750 756 755 754 754 757 757 760 764 761 769 775 771 773 775 774 777 779 782 786 785 788 798 800 799 805 805 802 804 804 803 803 798 798 803 810 813 809 803 805 807 808 811 813 813 817 823 818 816 824 813 787 779 783 783 781 776 775 777 778 780 782 783 785 785 786
681 686 691 697 704 709 711 712 713 713 714 715 716 720 721 724 726 724 741 760 748 738 744 750 754 755 756 759 759 761 762 761 766 771 772 774 775 775 778 777 777 786 789 787 794 801 803 806 803 799 800 801 805 810 806 800 803 811 815 809 807 809 808 809 812 812 817 825 824 815 814 822 811 786 780 787 785 780 772 769 774 778 780 782 783 785 786 786
681 686 691 696 703 708 710 712 713 712 713 714 716 719 721 725 726 736 756 751 737 741 745 747 752 751 755 760 762 762 762 766 768 769 773 773 774 776 778 777 777 786 793 791 798 806 807 807 806 803 804 805 809 814 814 809 807 810 811 808 812 813 811 813 812 811 823 829 823 820 818 821 818 790 775 782 782 774 769 770 776 778 780 782 783 785 786 785
681 686 691 695 700 704 706 709 709 709 711 713 716 719 721 726 728 743 756 736 728 746 749 747 749 746 751 756 760 763 763 768 769 769 774 774 776 778 779 782 782 790 798 798 803 808 806 807 806 808 811 808 807 810 815 814 811 809 806 807 816 819 819 821 818 821 832 829 825 831 828 827 824 796 771 775 777 773 772 772 775 778 780 782 783 784 785 786
682 687 692 696 700 702 702 702 702 706 711 711 715 716 718 732 738 738 738 725 728 744 742 741 743 742 748 750 755 762 764 769 770 768 771 773 777 777 776 779 782 793 803 800 803 806 805 807 807 809 813 808 804 807 815 817 812 809 804 808 820 826 830 832 828 829 830 827 830 835 833 830 817 789 772 773 774 774 774 771 773 776 779 781 783 784 784 785
684 687 693 697 699 701 700 699 701 705 709 711 715 713 716 736 739 725 724 724 726 730 729 733 737 739 746 750 754 760 762 767 768 766 768 769 775 777 775 774 773 783 791 793 801 806 807 809 808 809 810 807 802 803 813 817 812 808 803 808 818 824 836 840 832 828 825 828 835 834 833 829 808 782 771 770 770 771 772 774 776 778 780 782 783 784 784 785
684 688 693 697 698 700 698 699 702 704 707 710 712 714 721 733 726 713 719 724 721 723 725 730 735 740 745 747 751 754 760 768 767 766 769 771 775 778 776 774 771 773 779 788 796 800 805 807 805 806 804 802 802 800 802 804 805 805 798 802 809 811 821 828 823 820 821 829 838 839 832 817 798 783 772 770 772 773 774 776 779 781 782 783 783 784 785 785
685 690 693 696 698 699 697 699 702 704 707 707 709 718 724 722 713 708 715 719 721 724 726 728 734 742 747 748 749 749 754 765 767 766 770 770 771 772 771 771 770 769 774 786 791 791 796 799 801 808 805 801 803 803 800 799 804 807 801 804 808 800 802 820 828 823 822 828 832 835 824 796 779 774 768 770 774 774 776 777 779 781 781 783 784 783 784 785
685 691 694 696 697 697 697 699 701 705 705 703 710 717 713 706 703 702 706 712 718 722 728 734 738 742 748 752 753 751 752 760 765 767 769 767 765 765 764 763 765 766 767 775 784 786 791 800 806 810 807 806 808 807 804 804 806 808 808 810 807 800 801 819 834 831 829 826 815 814 812 790 778 772 764 769 774 773 776 777 778 780 781 782 783 782 784 785
684 689 692 695 696 695 696 698 701 706 704 702 707 708 700 698 699 698 701 709 714 716 724 736 739 737 743 750 752 752 753 758 764 766 766 767 764 759 760 759 758 761 759 762 775 778 781 800 811 807 806 811 813 810 807 807 806 808 812 806 801 805 806 808 820 826 829 825 807 803 804 793 788 782 770 771 774 771 774 775 776 779 781 782 782 782 784 785
681 686 691 693 695 695 696 699 702 705 705 705 705 700 696 699 700 697 699 704 709 713 719 728 732 730 734 743 746 748 752 757 764 765 763 766 762 750 754 759 757 758 756 757 769 771 771 792 811 812 809 810 811 809 808 809 808 807 807 800 800 811 811 808 816 821 824 822 809 801 801 794 789 781 770 771 772 769 770 772 773 777 780 780 781 782 784 785
678 683 690 693 694 695 696 700 703 704 706 706 703 698 696 703 706 700 697 700 705 712 715 717 723 727 729 732 736 744 749 750 757 762 759 762 760 748 747 754 757 759 757 758 767 770 770 783 804 813 811 808 810 809 807 808 809 809 806 803 804 807 806 805 806 804 810 815 808 803 803 795 780 768 763 764 764 763 766 768 769 772 775 777 779 781 784 786
674 679 689 693 694 696 697 701 704 706 705 699 694 694 694 702 710 706 700 701 703 708 709 709 717 725 726 726 729 738 744 744 749 755 753 753 756 752 746 746 754 759 759 761 765 769 775 781 795 812 814 810 810 807 801 800 803 807 806 806 808 806 805 806 800 794 800 807 802 802 802 784 763 757 757 756 756 757 759 762 765 768 770 773 777 780 783 786
670 677 689 693 693 695 696 701 705 703 699 693 690 694 696 701 708 708 707 707 705 707 707 705 712 719 722 724 726 732 740 743 745 749 749 748 749 751 745 741 749 757 762 768 767 767 776 781 792 811 814 807 804 803 803 802 801 801 799 797 799 800 804 810 807 799 800 801 797 799 800 779 757 756 755 753 756 757 757 760 763 766 769 772 775 778 781 784
669 678 688 691 692 693 693 699 701 696 695 694 691 695 699 701 704 707 710 709 708 709 708 707 711 716 719 721 722 728 736 740 743 744 744 742 740 742 743 741 746 753 759 765 766 766 771 779 793 806 807 804 804 807 812 812 806 802 799 794 791 793 797 803 805 801 801 805 801 801 803 782 762 763 763 759 762 764 765 765 763 765 769 771 774 777 780 783
673 682 688 690 692 691 691 698 700 696 695 694 692 697 701 700 702 707 710 709 710 711 710 710 713 716 719 719 721 727 732 737 741 739 738 740 739 741 743 742 747 752 757 762 766 769 771 776 791 804 804 803 805 806 810 812 808 803 799 797 793 790 788 791 794 791 795 803 801 803 805 783 763 769 773 769 769 771 773 772 767 767 769 771 774 777 780 784
677 683 688 691 694 693 691 692 693 693 694 694 695 701 704 701 703 707 708 708 708 708 709 712 713 715 718 719 721 724 728 735 741 738 736 739 742 748 746 743 747 751 753 756 757 764 771 773 783 800 808 808 808 808 808 809 807 799 792 791 791 788 789 793 793 790 792 795 791 797 798 776 764 773 775 773 772 770 771 773 771 770 770 772 775 778 781 785
677 684 691 693 695 695 691 687 685 687 693 695 696 700 703 704 707 706 705 706 707 704 705 712 713 713 718 721 722 724 724 729 735 737 739 739 744 752 750 746 748 748 750 752 750 756 767 769 775 790 802 804 803 800 794 793 797 795 790 790 790 789 791 792 792 794 796 790 787 792 786 768 765 773 772 770 772 768 767 771 773 771 771 772 775 778 781 784
675 683 691 695 698 698 694 691 687 685 689 694 696 697 698 703 709 708 705 707 710 707 706 711 712 714 719 721 724 727 725 727 733 737 739 741 747 755 756 752 750 750 753 755 753 756 764 766 767 773 779 780 779 775 770 773 784 789 788 788 787 786 787 787 791 793 790 786 786 784 776 767 766 769 768 767 767 765 764 768 772 772 771 773 775 778 781 783
676 681 687 691 696 698 697 695 691 684 684 689 693 693 694 698 705 709 708 707 708 708 709 712 711 713 718 720 723 727 726 730 737 737 736 741 749 756 759 756 754 756 757 756 755 758 763 767 767 766 765 762 760 760 759 764 774 777 778 780 781 782 785 790 792 785 778 786 788 775 770 772 766 761 763 763 761 761 761 764 768 768 769 772 774 777 781 783
682 685 688 687 688 691 691 690 688 685 684 687 689 690 693 697 701 704 707 710 709 706 708 713 712 709 711 713 718 725 728 733 739 738 736 742 750 755 758 758 758 760 760 757 757 758 762 766 765 765 765 760 757 759 760 761 765 767 769 773 776 780 785 789 788 779 774 783 780 765 764 769 762 756 757 755 754 757 757 759 763 765 768 771 774 777 781 783
688 689 691 690 690 689 685 684 688 688 685 686 690 690 690 693 696 697 701 709 712 707 705 710 710 707 706 708 711 719 726 730 734 737 739 744 748 751 755 757 758 760 759 758 760 760 761 762 761 764 767 763 760 763 764 763 765 765 766 767 770 776 781 782 782 776 772 774 768 759 760 760 754 751 751 748 750 754 756 760 763 764 767 770 773 777 780 782
690 690 692 693 694 693 688 686 690 691 688 688 691 691 689 689 693 695 698 703 707 706 705 705 705 705 706 706 708 712 715 716 721 729 737 743 746 747 749 749 752 760 762 759 760 763 762 761 758 762 770 767 762 764 767 766 766 767 766 766 768 774 779 780 779 774 774 773 765 761 764 760 749 746 747 749 753 757 760 762 763 763 766 769 773 776 778 780
690 691 692 692 694 697 693 688 689 691 690 688 689 689 689 688 688 693 699 700 700 702 704 703 703 707 710 709 708 709 709 709 714 720 726 732 735 737 740 740 745 758 763 760 760 761 763 763 760 764 775 772 763 764 769 770 771 772 772 770 770 773 775 775 772 768 770 772 769 770 770 760 746 743 747 751 753 756 758 760 761 763 765 768 771 773 774 776
692 693 692 691 694 699 697 690 688 691 688 685 685 687 688 687 686 691 699 702 701 700 702 701 701 708 714 714 710 707 708 712 717 720 722 726 727 730 736 737 739 747 755 758 758 758 760 762 761 766 772 769 763 765 768 774 780 778 770 766 766 767 766 766 764 762 762 764 767 768 761 748 741 743 749 751 751 754 756 756 758 760 761 764 766 767 769 772